Location: Recife
(8.0585°S, 34.8848°W)
Time: 13:06:44
(UTC-03:00)

Vanguard 1 - Visible Passes

Search period start: 14 April 2026 00:00
Search period end: 24 April 2026 00:00
Orbit: 654 x 3817 km, 34.2° (Epoch: 14 April)

Date Brightness Start Highest point End Pass type
(mag) Time Alt. Az. Time Alt. Az. Time Alt. Az.
14 Apr 12.3 18:26:07 10° SW 18:40:07 83° SE 19:02:37 11° NE visible
14 Apr 13.2 20:49:28 10° WSW 21:06:58 45° NW 21:15:28 36° N visible
14 Apr 14.1 23:24:40 10° WNW 23:45:38 13° N 23:48:46 10° N visible
15 Apr 12.4 18:45:31 10° WSW 18:59:54 82° NW 19:23:05 10° NE visible
15 Apr 13.5 21:10:21 10° W 21:27:22 36° NW 21:37:33 27° N visible
16 Apr 14.1 00:00:35 12° NNW 00:00:35 12° NNW 00:06:03 10° N visible
16 Apr 13.3 04:59:48 10° N 05:01:36 11° NNE 05:03:14 10° NNE visible
16 Apr 12.7 19:05:07 10° WSW 19:19:48 68° NW 19:42:45 10° NE visible
16 Apr 13.7 21:31:54 10° W 21:48:01 28° NNW 22:06:19 10° NNE visible
17 Apr 12.1 17:03:47 10° SW 17:14:42 65° SE 17:34:26 10° ENE visible
17 Apr 12.9 19:25:00 10° WSW 19:39:51 55° NW 20:02:09 10° NE visible
17 Apr 13.9 21:54:19 10° WNW 22:09:00 22° NNW 22:24:55 10° NNE visible
18 Apr 12.1 17:22:57 10° SW 17:34:16 81° SE 17:54:51 10° ENE visible
18 Apr 13.2 19:45:13 10° W 20:00:05 44° NNW 20:21:21 10° NNE visible
18 Apr 14.1 22:17:54 10° WNW 22:30:22 17° NNW 22:43:19 10° N visible
19 Apr 13.6 03:33:48 10° N 03:37:09 11° NNE 03:40:04 10° NNE visible
19 Apr 12.2 17:42:16 10° WSW 17:53:55 82° NW 18:14:54 10° NE visible
19 Apr 13.5 20:05:55 10° W 20:20:33 35° NNW 20:40:21 10° NNE visible
19 Apr 14.2 22:43:03 10° NW 22:52:14 13° NNW 23:01:25 10° N visible
20 Apr 13.4 03:50:37 10° NNW 03:57:48 16° NNE 04:03:12 10° NE visible
20 Apr 12.5 18:01:47 10° WSW 18:13:43 66° NW 18:34:37 10° NE visible
20 Apr 13.7 20:27:14 10° W 20:41:16 27° NNW 20:59:12 10° NNE visible
20 Apr 14.3 23:10:35 10° NNW 23:14:33 11° NNW 23:18:25 10° N visible
21 Apr 13.0 04:08:44 10° NNW 04:18:12 22° NNE 04:24:32 10° ENE visible
21 Apr 12.8 18:21:34 10° WSW 18:33:43 52° NNW 18:54:05 10° NE visible
21 Apr 14.0 20:49:21 10° WNW 21:02:20 21° NNW 21:17:56 10° NNE visible
22 Apr 13.9 02:06:28 10° N 02:11:32 12° NNE 02:15:56 10° NNE visible
22 Apr 12.6 04:27:22 10° NNW 04:38:23 31° NNE 04:45:06 10° E visible
22 Apr 13.2 18:41:43 10° W 18:53:56 41° NNW 19:13:18 10° NNE visible
22 Apr 14.1 21:12:33 10° NW 21:23:49 17° NNW 21:36:31 10° NNE visible
23 Apr 13.7 02:23:48 10° NNW 02:32:41 16° NNE 02:39:29 10° NE visible
23 Apr 12.1 04:46:21 10° NW 04:58:20 43° NNE 05:05:08 10° E visible
23 Apr 13.5 19:02:18 10° W 19:14:23 32° NNW 19:32:20 10° NNE visible
23 Apr 14.3 21:37:06 10° NW 21:45:44 13° NNW 21:54:57 10° N visible
